Location: Zürich
(47.3769°N, 8.5417°E)
Time: 12:05:29
(UTC+01:00)

ISS - Visible Passes

Search period start: 15 December 2019 00:00
Search period end: 25 December 2019 00:00
Orbit: 411 x 421 km, 51.6° (Epoch: 15 December)

Date Brightness Start Highest point End Pass type
(mag) Time Alt. Az. Time Alt. Az. Time Alt. Az.
20 Dec -0.4 07:08:44 10° SSE 07:10:28 14° SE 07:12:14 10° ESE visible
22 Dec -1.8 07:06:46 10° SSW 07:09:44 31° SE 07:12:43 10° E visible
23 Dec -1.1 06:18:48 10° S 06:21:19 20° SE 06:23:49 10° E visible
24 Dec -0.7 05:31:28 10° SSE 05:32:55 13° SE 05:34:27 10° ESE visible
24 Dec -3.5 07:05:50 10° SW 07:09:08 69° SSE 07:12:27 10° ENE visible
